IUS DEB, 26078

Orbit data source: Space-Track

IUS DEB, 26078 is space debris originally from a launch on Fri, 23 Jul 1999 UTC launched from the Air Force Eastern Test Range (AFETR). Debris objects in space refer to the collection of defunct objects orbiting the Earth. Examples of debris include non-operational satellites, rocket bodies, and fragments generated from explosions, collisions, or faulty payload assembly.

Loading next visibility...
IUS DEB details
Identifier
26078, 1999-040F
Orbit
Active
Last TLE update2 months ago
Origin
Flag of USGSFC (US)
ManufacturerBoeing/Kent
MissionSpacecraft
Bus & MotorUnknown
MassUnknown
Launch date (UTC)
1999-07-23 (25 years ago)
Launch vehicleUnknown
Launch site
Air Force Eastern Test Range (AFETR)
Object type
Payload
Rocket body
Debris
Shape & HBRUnknown
Radar Cross SectionSmall (<0.1 m²)

Expand to show TLE details & history

TLE from 2 months ago
0 IUS DEB
1 26078U 99040F   24293.06988858  .00005798  00000-0  13567-2 0  9990
2 26078  28.4163  83.8082 4394441 218.2690 100.5351  6.60459360270783
Epoch: 2024-10-19T01:40Z
Definitive object data (Epoch: 2024-10-19T01:40:38.373Z)
Latitude
Longitude30.61777°
Altitude8,406.37 km
Speed4.551 km/s
True Right ascension05h 35m 13s
True Declination0° 00' 00"
Sunlit
Object was in daylight at TLE epoch
Visualization TLE readout
Latitude-12.59346°
Longitude-94.58677°
Altitude1,163.977 km
Speed8.513 km/s
Apparent Right ascension21h 16m 51s
Apparent Declination-24° 57' 36"
Sunlit
Object is in daylight
Visualization observer readout
Local Sidereal Time09:20:31
Azimuth3.216° NNE
Elevation-75.024°
Doppler factor1
Orbital elements
Apogee altitude10,899.614 km
Perigee altitude350.256 km
Semi-major axis12,003.072 km
Eccentricity0.4394441
Inclination28.4163°
RAAN83.8082°
Arg. of periapsis218.269°
True anomaly141.77138°
Mean anomaly100.5351°
Eccentric anomaly121.90873°
Mean motion1.65046 °/min
BSTAR0.0013567
Orbital period218.12 mins
Loading maneuver chart data...
Loading historical data...
Loading historical data...
Loading historical data...
Loading historical data...
Loading historical data...
Loading historical data...
Loading historical data...

IUS DEB Visibility forecast

Observer location: undefined°, undefined

Span
Click to sort rows by Start time (UTC) header in descending order
Start Az.
Max El. time (UTC)
Max El. Az.
Max El.
End time (UTC)
End Az.
96 mins2024-12-26 10:38:24.407Z262.44° W2024-12-26 11:04:24.407Z206.949° SW30.914°2024-12-26 12:14:24.407Z158.213° S
19 mins2024-12-27 04:30:24.407Z207.792° SW2024-12-27 04:33:24.407Z162.745° S31.771°2024-12-27 04:49:24.407Z99.053° ESE
72 mins2024-12-27 08:16:24.407Z256.646° W2024-12-27 08:29:24.407Z192.781° SSW36.823°2024-12-27 09:28:24.407Z132.695° SE
|